• In Hungary
  • List of Countries
  • For 7 days
  • Water Temperature
  • Satellite Maps
  • Weather Map
  • News
  • Weather Widgets
  • user-avatar
    Login

    Hourly Weather Coburg

    Today, 17 October, Wednesday

    Time Temperature Precipitation Wind Pressure Humidity
    00:00 +12°C° 0 mm 0 mps 737 mmHg 88%
    01:00 +12°C° 0 mm 0 mps 737 mmHg 85%
    02:00 +12°C° 0 mm 0 mps 737 mmHg 85%
    03:00 +11°C° 0 mm 0 mps 737 mmHg 86%
    04:00 +11°C° 0 mm 0 mps 737 mmHg 86%
    05:00 +11°C° 0 mm 0 mps 737 mmHg 87%
    06:00 +11°C° 0 mm 0 mps 737 mmHg 88%
    07:00 +10°C° 0 mm 0 mps 737 mmHg 89%
    08:00 +13°C° 0 mm 0 mps 737 mmHg 80%
    09:00 +15°C° 0 mm 0 mps 737 mmHg 72%
    10:00 +17°C° 0 mm 0 mps 737 mmHg 63%
    11:00 +18°C° 0 mm 0 mps 737 mmHg 58%
    12:00 +20°C° 0 mm 0 mps 737 mmHg 53%
    13:00 +21°C° 0 mm 0 mps 737 mmHg 48%
    14:00 +21°C° 0 mm 0 mps 737 mmHg 51%
    15:00 +20°C° 0 mm 0 mps 736 mmHg 54%
    16:00 +20°C° 0 mm 0 mps 736 mmHg 56%
    17:00 +20°C° 0 mm 1 mps 736 mmHg 63%
    18:00 +18°C° 0 mm 1 mps 736 mmHg 69%
    19:00 +15°C° 0 mm 1 mps 736 mmHg 76%
    20:00 +14°C° 0 mm 1 mps 736 mmHg 78%
    21:00 +13°C° 0 mm 0 mps 736 mmHg 80%
    22:00 +12°C° 0 mm 0 mps 736 mmHg 83%
    23:00 +12°C° 0 mm 0 mps 736 mmHg 84%

    Tomorrow, 18 October, Thursday

    Time Temperature Precipitation Wind Pressure Humidity
    00:00 +11°C° 0 mm 0 mps 736 mmHg 85%
    01:00 +11°C° 0 mm 0 mps 737 mmHg 86%
    02:00 +11°C° 0 mm 0 mps 736 mmHg 87%
    03:00 +11°C° 0 mm 0 mps 736 mmHg 88%
    04:00 +11°C° 0 mm 0 mps 736 mmHg 89%
    05:00 +12°C° 0 mm 1 mps 737 mmHg 90%
    06:00 +11°C° 0 mm 1 mps 737 mmHg 91%
    07:00 +11°C° 0 mm 1 mps 737 mmHg 92%
    08:00 +13°C° 0 mm 1 mps 737 mmHg 85%
    09:00 +15°C° 0 mm 1 mps 738 mmHg 77%
    10:00 +18°C° 0 mm 1 mps 738 mmHg 70%
    11:00 +18°C° 0 mm 2 mps 738 mmHg 66%
    12:00 +19°C° 0 mm 2 mps 738 mmHg 62%
    13:00 +20°C° 0 mm 2 mps 738 mmHg 59%
    14:00 +19°C° 0 mm 2 mps 738 mmHg 62%
    15:00 +19°C° 0 mm 3 mps 738 mmHg 66%
    16:00 +18°C° 0 mm 3 mps 738 mmHg 70%
    17:00 +17°C° 0 mm 3 mps 738 mmHg 78%
    18:00 +15°C° 0 mm 2 mps 738 mmHg 85%
    19:00 +14°C° 0 mm 2 mps 738 mmHg 93%
    20:00 +13°C° 0 mm 2 mps 739 mmHg 93%
    21:00 +13°C° 0 mm 2 mps 739 mmHg 94%
    22:00 +13°C° 0 mm 2 mps 739 mmHg 94%
    23:00 +13°C° 0 mm 2 mps 739 mmHg 94%

    Day after tomorrow, 19 October, Friday

    Time Temperature Precipitation Wind Pressure Humidity
    00:00 +12°C° 0 mm 2 mps 739 mmHg 95%
    01:00 +12°C° 0 mm 2 mps 739 mmHg 95%
    02:00 +12°C° 0 mm 2 mps 739 mmHg 95%
    03:00 +12°C° 0 mm 2 mps 740 mmHg 95%
    04:00 +12°C° 0 mm 2 mps 740 mmHg 94%
    05:00 +10°C° 0 mm 2 mps 740 mmHg 95%
    06:00 +10°C° 0 mm 2 mps 740 mmHg 95%
    07:00 +10°C° 0 mm 2 mps 740 mmHg 95%
    08:00 +12°C° 0 mm 2 mps 740 mmHg 89%
    09:00 +13°C° 0 mm 2 mps 741 mmHg 83%
    10:00 +14°C° 0 mm 2 mps 741 mmHg 77%
    11:00 +15°C° 0 mm 2 mps 741 mmHg 72%
    12:00 +16°C° 0 mm 2 mps 741 mmHg 67%
    13:00 +17°C° 0 mm 2 mps 741 mmHg 62%
    14:00 +17°C° 0 mm 2 mps 741 mmHg 64%
    15:00 +16°C° 0 mm 2 mps 741 mmHg 65%
    16:00 +16°C° 0 mm 2 mps 741 mmHg 66%
    17:00 +14°C° 0 mm 2 mps 741 mmHg 72%
    18:00 +13°C° 0 mm 2 mps 741 mmHg 78%
    19:00 +10°C° 0 mm 2 mps 741 mmHg 84%
    20:00 +9°C° 0 mm 2 mps 741 mmHg 86%
    21:00 +8°C° 0 mm 2 mps 742 mmHg 87%
    22:00 +9°C° 0 mm 1 mps 742 mmHg 88%
    23:00 +9°C° 0 mm 1 mps 742 mmHg 88%

    20 October, Saturday

    Time Temperature Precipitation Wind Pressure Humidity
    00:00 +8°C° 0 mm 1 mps 742 mmHg 88%
    01:00 +8°C° 0 mm 1 mps 742 mmHg 88%
    02:00 +8°C° 0 mm 1 mps 742 mmHg 89%
    03:00 +7°C° 0 mm 1 mps 742 mmHg 89%
    04:00 +7°C° 0 mm 1 mps 742 mmHg 89%
    05:00 +7°C° 0 mm 1 mps 743 mmHg 89%
    06:00 +7°C° 0 mm 1 mps 743 mmHg 88%
    07:00 +7°C° 0 mm 1 mps 743 mmHg 87%
    08:00 +7°C° 0 mm 2 mps 744 mmHg 80%
    09:00 +9°C° 0 mm 2 mps 744 mmHg 72%
    10:00 +10°C° 0 mm 2 mps 745 mmHg 64%
    11:00 +12°C° 0 mm 2 mps 745 mmHg 59%
    12:00 +13°C° 0 mm 2 mps 745 mmHg 54%
    13:00 +15°C° 0 mm 2 mps 745 mmHg 49%
    14:00 +14°C° 0 mm 2 mps 745 mmHg 51%
    15:00 +14°C° 0 mm 2 mps 745 mmHg 52%
    16:00 +13°C° 0 mm 2 mps 745 mmHg 53%
    17:00 +10°C° 0 mm 2 mps 745 mmHg 61%
    18:00 +8°C° 0 mm 2 mps 745 mmHg 69%
    19:00 +6°C° 0 mm 2 mps 745 mmHg 77%
    20:00 +6°C° 0 mm 2 mps 745 mmHg 79%
    21:00 +5°C° 0 mm 2 mps 746 mmHg 82%
    22:00 +5°C° 0 mm 2 mps 746 mmHg 85%
    23:00 +5°C° 0 mm 1 mps 746 mmHg 85%

    21 October, Sunday

    Time Temperature Precipitation Wind Pressure Humidity
    00:00 +5°C° 0 mm 1 mps 746 mmHg 86%
    01:00 +5°C° 0 mm 1 mps 746 mmHg 87%
    02:00 +5°C° 0 mm 1 mps 746 mmHg 87%
    03:00 +4°C° 0 mm 1 mps 746 mmHg 87%
    04:00 +4°C° 0 mm 1 mps 745 mmHg 87%
    05:00 +4°C° 0 mm 1 mps 745 mmHg 86%
    06:00 +4°C° 0 mm 1 mps 745 mmHg 85%
    07:00 +4°C° 0 mm 1 mps 745 mmHg 85%
    08:00 +6°C° 0 mm 1 mps 745 mmHg 74%
    09:00 +9°C° 0 mm 1 mps 745 mmHg 62%
    10:00 +12°C° 0 mm 1 mps 745 mmHg 51%
    11:00 +13°C° 0 mm 1 mps 745 mmHg 47%
    12:00 +15°C° 0 mm 1 mps 744 mmHg 42%
    13:00 +16°C° 0 mm 0 mps 744 mmHg 37%
    14:00 +15°C° 0 mm 0 mps 744 mmHg 40%
    15:00 +15°C° 0 mm 0 mps 743 mmHg 43%
    16:00 +14°C° 0 mm 0 mps 743 mmHg 46%
    17:00 +12°C° 0 mm 0 mps 742 mmHg 50%
    18:00 +10°C° 0 mm 0 mps 742 mmHg 54%
    19:00 +8°C° 0 mm 0 mps 742 mmHg 58%
    20:00 +8°C° 0 mm 0 mps 742 mmHg 59%
    21:00 +7°C° 0 mm 0 mps 742 mmHg 60%
    22:00 +7°C° 0 mm 0 mps 742 mmHg 62%
    23:00 +7°C° 0 mm 0 mps 742 mmHg 63%

    22 October, Monday

    Time Temperature Precipitation Wind Pressure Humidity
    00:00 +6°C° 0 mm 0 mps 742 mmHg 65%
    01:00 +6°C° 0 mm 0 mps 742 mmHg 67%
    02:00 +6°C° 0 mm 0 mps 742 mmHg 68%
    03:00 +5°C° 0 mm 0 mps 742 mmHg 70%
    04:00 +5°C° 0 mm 0 mps 742 mmHg 72%
    05:00 +5°C° 0 mm 0 mps 742 mmHg 73%
    06:00 +5°C° 0 mm 0 mps 742 mmHg 74%
    07:00 +4°C° 0 mm 0 mps 742 mmHg 75%
    08:00 +8°C° 0 mm 1 mps 742 mmHg 68%
    09:00 +10°C° 0 mm 1 mps 743 mmHg 60%
    10:00 +12°C° 0 mm 1 mps 743 mmHg 53%
    11:00 +13°C° 0 mm 2 mps 743 mmHg 57%
    12:00 +13°C° 0 mm 2 mps 743 mmHg 60%
    13:00 +13°C° 0 mm 2 mps 743 mmHg 64%
    14:00 +12°C° 0 mm 3 mps 743 mmHg 69%
    15:00 +11°C° 0 mm 3 mps 743 mmHg 74%
    16:00 +10°C° 0 mm 3 mps 742 mmHg 79%
    17:00 +9°C° 0 mm 3 mps 743 mmHg 83%
    18:00 +8°C° 0 mm 2 mps 743 mmHg 86%
    19:00 +7°C° 0 mm 2 mps 743 mmHg 89%
    20:00 +6°C° 0 mm 2 mps 743 mmHg 90%
    21:00 +6°C° 0 mm 2 mps 743 mmHg 91%
    22:00 +5°C° 0 mm 2 mps 743 mmHg 92%
    23:00 +4°C° 0 mm 2 mps 743 mmHg 93%
    Show more